Weather History for KPBF - February, 2013

Change the Weather History Date:

Monday, February 11, 2013

  Actual Average Record
Temperature  
Mean Temperature 52 °F 45 °F  
Max Temperature 57 °F 55 °F 88 °F (1918)
Min Temperature 46 °F 36 °F 8 °F (2011)
Degree Days  
Heating Degree Days 13 20  
Month to date heating degree days 181 228  
Since 1 July heating degree days 1855 2086  
Cooling Degree Days 0 0  
Month to date cooling degree days 0 0  
Year to date cooling degree days 5 1  
Growing Degree Days 2 (Base 50)    
Moisture  
Dew Point 36 °F    
Average Humidity 63    
Maximum Humidity 86    
Minimum Humidity 40    
Precipitation  
Precipitation 0.00 in 0.14 in 2.70 in (1965)
Month to date precipitation 1.49 1.46  
Year to date precipitation 8.42 5.22  
Snow  
Snow 0.00 in 0.00 in 1.50 in (1933)
Month to date snowfall 0.0 0.5  
Since 1 July snowfall 2.1 3.0  
Snow Depth 0.00 in    
Sea Level Pressure  
Sea Level Pressure 30.13 in    
Wind  
Wind Speed 4 mph (NNE)    
Max Wind Speed 13 mph    
Max Gust Speed 17 mph    
Visibility 10 miles    
Events      
T = Trace of Precipitation, MM = Missing Value Source: NWS Daily Summary

Daily Weather History Graph

Daily Weather History Graph

Search for Another Location

Airport or City:

Trip Planner

Search our weather history database for the weather conditions in past years. The results will help you decide how hot, cold, wet, or windy it might be!

Date:

Astronomy

Feb. 11, 2013 Rise Set
Actual Time 6:56 AM CST 5:48 PM CST
Civil Twilight 6:30 AM CST 6:13 PM CST
Nautical Twilight 6:01 AM CST 6:43 PM CST
Astronomical Twilight 5:31 AM CST 7:12 PM CST
Moon 7:27 AM CST (2/11) 7:37 PM CST (2/11)
Length of Visible Light 11h 43m
Length of Day
10h 51m
Waxing Crescent, 3% of the Moon is Illuminated
Feb 11
Waxing Crescent
Feb 17
First Quarter
Feb 25
Full
Mar 4
Last Quarter
Mar 11
New

Hourly Weather History & Observations

Time (CST) Temp. Dew Point Humidity Pressure Visibility Wind Dir Wind Speed Gust Speed Precip Events Conditions
12:53 AM 52.0 °F 36.0 °F 54% 30.01 in 10.0 mi WNW 3.5 mph - N/A   Clear
1:53 AM 52.0 °F 35.1 °F 53% 30.03 in 10.0 mi NW 10.4 mph - N/A   Clear
2:53 AM 51.1 °F 35.1 °F 54% 30.06 in 10.0 mi NW 8.1 mph - N/A   Clear
3:53 AM 51.1 °F 34.0 °F 52% 30.06 in 10.0 mi NNW 10.4 mph - N/A   Clear
4:53 AM 48.9 °F 34.0 °F 56% 30.10 in 10.0 mi NNW 5.8 mph - N/A   Clear
5:53 AM 46.9 °F 36.0 °F 66% 30.10 in 10.0 mi North 4.6 mph - N/A   Clear
6:53 AM 46.9 °F 34.0 °F 61% 30.13 in 10.0 mi North 6.9 mph - N/A   Clear
7:53 AM 46.9 °F 34.0 °F 61% 30.16 in 10.0 mi North 4.6 mph - N/A   Clear
8:53 AM 48.0 °F 36.0 °F 63% 30.18 in 10.0 mi NNE 4.6 mph - N/A   Clear
9:53 AM 48.9 °F 35.1 °F 59% 30.19 in 10.0 mi NE 5.8 mph - N/A   Clear
10:53 AM 50.0 °F 32.0 °F 50% 30.20 in 10.0 mi NE 6.9 mph - N/A   Clear
11:53 AM 53.1 °F 33.1 °F 47% 30.19 in 10.0 mi East 4.6 mph - N/A   Clear
12:53 PM 55.9 °F 32.0 °F 40% 30.17 in 10.0 mi ENE 8.1 mph - N/A   Clear
1:53 PM 57.0 °F 33.1 °F 40% 30.14 in 10.0 mi ENE 6.9 mph - N/A   Clear
2:53 PM 55.9 °F 33.1 °F 42% 30.12 in 10.0 mi NE 4.6 mph - N/A   Mostly Cloudy
3:53 PM 55.0 °F 34.0 °F 45% 30.13 in 10.0 mi ENE 3.5 mph - N/A   Overcast
4:53 PM 54.0 °F 35.1 °F 49% 30.11 in 10.0 mi NE 5.8 mph - N/A   Scattered Clouds
5:53 PM 53.1 °F 35.1 °F 50% 30.13 in 10.0 mi Calm Calm - N/A   Partly Cloudy
6:53 PM 51.1 °F 43.0 °F 74% 30.13 in 10.0 mi Calm Calm - N/A   Partly Cloudy
7:53 PM 50.0 °F 44.1 °F 80% 30.15 in 10.0 mi Calm Calm - N/A   Mostly Cloudy
8:53 PM 50.0 °F 39.0 °F 66% 30.15 in 10.0 mi Calm Calm - N/A   Partly Cloudy
9:53 PM 50.0 °F 43.0 °F 77% 30.17 in 10.0 mi Calm Calm - N/A   Clear
10:53 PM 48.0 °F 44.1 °F 86% 30.15 in 10.0 mi Calm Calm - N/A   Partly Cloudy
11:53 PM 46.9 °F 44.1 °F 90% 30.15 in 10.0 mi Calm Calm - N/A   Partly Cloudy